Location: Mount Lemmon
(32.4432°N, 110.7577°W)
Time: 19:10:52
(UTC-07:00)

OTV 5 (USA 277) - Visible Passes

Search period start: 23 February 2018 00:00
Search period end: 05 March 2018 00:00
Orbit: 404 x 417 km, 43.0° (Epoch: 07 September)

Date Brightness Start Highest point End Pass type
(mag) Time Alt. Az. Time Alt. Az. Time Alt. Az.
23 Feb ? 05:36:06 26° NNW 05:36:06 26° NNW 05:38:51 10° NE visible
24 Feb ? 04:47:30 13° NE 04:47:30 13° NE 04:47:56 10° NE visible
24 Feb ? 06:20:53 10° NW 06:22:46 14° N 06:24:39 10° NNE visible
25 Feb ? 05:31:35 16° N 05:31:35 16° N 05:33:42 10° NNE visible
26 Feb ? 06:16:48 10° NNW 06:18:24 13° N 06:20:01 10° NNE visible
27 Feb ? 05:26:53 13° N 05:27:06 13° N 05:28:46 10° NNE visible
28 Feb ? 06:12:02 10° NNW 06:14:02 15° N 06:16:02 10° NE visible
01 Mar ? 05:22:09 13° N 05:22:45 13° N 05:24:29 10° NE visible
02 Mar ? 06:06:54 10° NW 06:09:34 22° NNE 06:12:14 10° ENE visible
03 Mar ? 05:17:31 16° N 05:18:20 18° NNE 05:20:40 10° ENE visible
04 Mar ? 04:28:55 11° NE 04:28:55 11° NE 04:29:06 10° NE visible
04 Mar ? 06:01:46 10° NW 06:04:56 45° NNE 06:08:05 10° ESE visible
